Вернуться в каталог

STARLINK-5916

АктивенСвязьVLEO
NORAD 55988·PAYLOAD·🇺🇸 United States

Запущен Mar 24, 2023 с Cape Canaveral Space Force Station

Loading…

Ближайшие Пролёты (ближайшие 24 часа)

TLE

СвежийSource: CelesTrak SupGP

Эпоха: Sep 15, 2026, 01:38 UTC

1 55988C 23042C   26258.06854167 -.00004124  00000+0 -14937-3 0  2583
2 55988  43.0020  74.1945 0001339 270.1113 125.1501 15.27585270    15

Отслеживайте STARLINK-5916 в реальном времени с AllMySat

Download on the App Store